Curtis, Michigan, United States (49820)
Lat: 46.21N, Lon: 85.75W
Wx Zone: MIZ015
Local Info
Past Weather Observations for Today

NOTE: This archive is for the closest National Weather Service station to Curtis. Information may differ from the station used for current weather conditions.

Click here for Long-term Archive

Time Weather Temperature Dewpoint Humidity Pressure Winds Precip Visibility
13:34
Overcast
Light Snow
16°F / -9°C 10°F / -12°C 79% 30.24 in
(1024 mb)
SSE 12.7 mph
(SSE 20 kph)
- 5SM
13:15
Overcast
Light Snow
16°F / -9°C 10°F / -12°C 79% 30.24 in
(1024 mb)
SE 12.7 mph
(SE 20 kph)
- 10SM
12:54
Overcast
16°F / -9°C 9°F / -13°C 73% 30.24 in
(1024 mb)
SSE 10.4 mph
(SSE 17 kph)
- 10SM
12:35
Overcast
14°F / -10°C 7°F / -14°C 73% 30.27 in
(1025 mb)
SSE 9.2 mph
(SSE 15 kph)
- 10SM
12:15
Mostly Cloudy
Hazy
14°F / -10°C 7°F / -14°C 73% 30.27 in
(1025 mb)
SE 11.5 mph
(SE 19 kph)
- 5SM
11:54
Overcast
Light Snow
14°F / -10°C 7°F / -14°C 73% 30.27 in
(1025 mb)
SE 11.5 mph
(SE 19 kph)
- 2SM
11:35
Overcast
12°F / -11°C 7°F / -14°C 79% 30.27 in
(1025 mb)
SSE 8.1 mph
(SSE 13 kph)
- 10SM
11:15
Mostly Cloudy
10°F / -12°C 7°F / -14°C 85% 30.3 in
(1026 mb)
SSE 8.1 mph
(SSE 13 kph)
- 10SM
10:54
Partly Cloudy
9°F / -13°C 5°F / -15°C 85% 30.3 in
(1026 mb)
SE 5.8 mph
(SE 9 kph)
- 10SM
10:35
Partly Cloudy
3°F / -16°C 1°F / -17°C 92% 30.3 in
(1026 mb)
SE 4.6 mph
(SE 7 kph)
- 10SM
10:15
Clear
1°F / -17°C -2°F / -19°C 85% 30.33 in
(1027 mb)
Calm - 10SM
09:54
Clear
-2°F / -19°C -6°F / -21°C 84% 30.33 in
(1027 mb)
SE 3.5 mph
(SE 6 kph)
- 10SM
09:35
Clear
-2°F / -19°C -6°F / -21°C 84% 30.33 in
(1027 mb)
Calm - 10SM
09:15
Clear
Light Snow
-4°F / -20°C -6°F / -21°C 92% 30.33 in
(1027 mb)
SE 3.5 mph
(SE 6 kph)
- 5SM
08:54
Clear
Light Snow
-6°F / -21°C -8°F / -22°C 92% 30.33 in
(1027 mb)
SE 4.6 mph
(SE 7 kph)
- 5SM
08:35
Clear
Light Snow
-4°F / -20°C -8°F / -22°C 84% 30.36 in
(1028 mb)
SE 3.5 mph
(SE 6 kph)
- 7SM
08:15
Clear
-8°F / -22°C -9°F / -23°C 92% 30.36 in
(1028 mb)
SE 4.6 mph
(SE 7 kph)
- 10SM
07:54
Clear
-6°F / -21°C -8°F / -22°C 92% 30.36 in
(1028 mb)
SSE 5.8 mph
(SSE 9 kph)
- 10SM
07:35
Partly Cloudy
-8°F / -22°C -9°F / -23°C 92% 30.36 in
(1028 mb)
SSE 5.8 mph
(SSE 9 kph)
- 10SM
07:14
Mostly Cloudy
-9°F / -23°C -11°F / -24°C 92% 30.36 in
(1028 mb)
SSE 6.9 mph
(SSE 11 kph)
- 10SM
06:54
Overcast
-9°F / -23°C -11°F / -24°C 92% 30.36 in
(1028 mb)
SSE 3.5 mph
(SSE 6 kph)
- 10SM
06:35
Overcast
-9°F / -23°C -13°F / -25°C 84% 30.36 in
(1028 mb)
Calm - 10SM
06:14
Overcast
-9°F / -23°C -13°F / -25°C 84% 30.36 in
(1028 mb)
S 3.5 mph
(S 6 kph)
- 10SM
05:54
Partly Cloudy
-8°F / -22°C -9°F / -23°C 92% 30.36 in
(1028 mb)
Calm - 10SM
05:35
Clear
-8°F / -22°C -9°F / -23°C 92% 30.36 in
(1028 mb)
Calm - 10SM
05:14
Clear
-6°F / -21°C -9°F / -23°C 84% 30.36 in
(1028 mb)
Calm - 10SM
04:54
Clear
-8°F / -22°C -9°F / -23°C 92% 30.36 in
(1028 mb)
SE 4.6 mph
(SE 7 kph)
- 10SM
04:35
Clear
-6°F / -21°C -8°F / -22°C 92% 30.36 in
(1028 mb)
SSE 4.6 mph
(SSE 7 kph)
- 10SM
04:14
Clear
-6°F / -21°C -8°F / -22°C 92% 30.36 in
(1028 mb)
SSE 5.8 mph
(SSE 9 kph)
- 10SM
03:54
Partly Cloudy
Light Snow
-6°F / -21°C -8°F / -22°C 92% 30.36 in
(1028 mb)
SE 6.9 mph
(SE 11 kph)
- 10SM
03:35
Partly Cloudy
Light Snow
-4°F / -20°C -8°F / -22°C 84% 30.39 in
(1029 mb)
SSE 6.9 mph
(SSE 11 kph)
- 5SM
03:14
Overcast
Light Snow
-2°F / -19°C -6°F / -21°C 84% 30.39 in
(1029 mb)
SSE 6.9 mph
(SSE 11 kph)
- 7SM
02:55
Overcast
Light Snow
-2°F / -19°C -4°F / -20°C 92% 30.39 in
(1029 mb)
SE 4.6 mph
(SE 7 kph)
- 7SM
02:35
Mostly Cloudy
Light Snow
-2°F / -19°C -6°F / -21°C 84% 30.39 in
(1029 mb)
SE 6.9 mph
(SE 11 kph)
- 5SM
02:14
Partly Cloudy
Light Snow
-4°F / -20°C -8°F / -22°C 84% 30.39 in
(1029 mb)
ESE 4.6 mph
(ESE 7 kph)
- 2 1/2SM
01:55
Overcast
Light Snow
-2°F / -19°C -6°F / -21°C 84% 30.39 in
(1029 mb)
ESE 6.9 mph
(ESE 11 kph)
- 3SM
01:35
Overcast
Snow
°F / -18°C -2°F / -19°C 92% 30.39 in
(1029 mb)
ESE 3.5 mph
(ESE 6 kph)
- 1/2SM
01:14
Overcast
Light Snow
1°F / -17°C °F / -18°C 92% 30.39 in
(1029 mb)
Calm - 1 1/4SM
00:55
Overcast
Light Snow
3°F / -16°C 1°F / -17°C 92% 30.39 in
(1029 mb)
Calm - 2SM
00:35
Mostly Cloudy
Light Snow
3°F / -16°C 1°F / -17°C 92% 30.39 in
(1029 mb)
SSW 6.9 mph
(SSW 11 kph)
- 5SM
00:14
Overcast
Light Snow
3°F / -16°C 1°F / -17°C 92% 30.36 in
(1028 mb)
SSW 6.9 mph
(SSW 11 kph)
- 4SM
Time Weather Temperature Dewpoint Humidity Pressure Winds Precip Visibility


Weather for websites

WeatherForYou.com, LLC is not responsible for any damages or problems caused by this service. Current weather conditions are obtained from the closest station including government and personal stations which may have varying degrees of accuracy. Weather forecasts are derived from the NOAA NDFD. Like all things, this site belongs to Jesus Christ... He just trusts us to maintain it. If you have any questions or comments email webmaster@weatherforyou.com

Copyright © 2016, WeatherForYou.com LLC. All rights reserved.